Regional Weather Roundup
Issued by NWS Newport/Morehead, NC

Current Version | Previous Version | Graphics & Text | Print | Product List | Glossary On
Versions: 1 2 3 4 5 6 7 8 9 10 11 12 13 14 15 16 17 18 19 20 21 22 23 24 25 26 27 28 29 30 31 32 33 34 35 36 37 38 39 40 41 42 43
000 ASUS42 KMHX 151627 RWRMHX WEATHER ROUNDUP FOR EASTERN NORTH CAROLINA NATIONAL WEATHER SERVICE NEWPORT/MOREHEAD CITY NC 1200 PM EDT TUE AUG 15 2017 NOTE: "FAIR" INDICATES FEW OR NO CLOUDS BELOW 12,000 FEET WITH NO SIGNIFICANT WEATHER AND/OR OBSTRUCTIONS TO VISIBILITY NCZ015>017-031-032-045>047-102-103-151700- NORTH COAST CITY SKY/WX TMP DP RH WIND PRES REMARKS EDENTON SUNNY 88 78 72 CALM 29.90F HX 101 ELIZABETH CITY MOSUNNY 87 78 74 S6 29.89F HX 100 KITTY HAWK MOSUNNY 85 76 73 CALM 29.89F MANTEO CLOUDY 83 76 77 SW8 29.90F $$ NCZ045>047-081-094-103-104-151700- CENTRAL COAST CITY SKY/WX TMP DP RH WIND PRES REMARKS FRISCO PTSUNNY 89 78 70 SE8 29.90F HX 103 $$ NCZ095-097-098-100-101-151700- SOUTHERN COAST CITY SKY/WX TMP DP RH WIND PRES REMARKS BEAUFORT SUNNY 83 80 91 S9 29.90F CEDAR ISLAND NOT AVBL JACKSONVILLE PTSUNNY 88 78 72 VRB5 29.89F HX 101 PINEY ISLAND SUNNY N/A N/A N/A E9 29.90S WILMINGTON MOSUNNY 91 76 61 CALM 29.89F HX 103 $$ NCZ011>013-027>030-043-044-078>080-089-090>093-098-151700- COASTAL PLAIN CITY SKY/WX TMP DP RH WIND PRES REMARKS AHOSKIE N/A 82 76 81 S7 29.90F CLINTON CLOUDY 83 80 88 CALM 29.91F ELIZABETHTOWN NOT AVBL GOLDSBORO PTSUNNY 86 82 89 VRB3 29.89F HX 105 GREENVILLE MOSUNNY 88 77 70 S5 29.91F HX 100 HAVELOCK PTSUNNY 89 74 60 CALM 29.90F KENANSVILLE PTSUNNY 88 77 70 SE5 29.89F HX 100 KINSTON PTSUNNY 88 75 66 S5 29.91S NEW BERN MOSUNNY 90 77 65 CALM 29.90F HX 103 RICHLANDS SUNNY 88 77 69 VRB3 29.90F HX 100 ROCKY MOUNT PTSUNNY 85 79 82 S6 29.91S WASHINGTON SUNNY 87 76 69 CALM 29.89F WHITEVILLE PTSUNNY 87 76 68 S3 29.90S $$ AMZ130-135-150-152-154-156-158-170-250-252-270-ANZ085-086-088-633-658-670-151700- MARINE OBSERVATIONS STATION/POSITION TIME TEMP WIND PRES WAVE SWELL AIR SEA DIR/SP/G HT/PER HT/PER (UTC) (F) (DEG/KT/KT) (MB) (FT/S) (FT/S) CHESAPEAKE LIGHT NOT AVBL 64 E VA BEACH 1550 79 78 160/ 4/ 6 1013.3 7/12 7/12 DUCK 1600 81 77 120/ 6/ 8 1012.1 2 E DUCK 1600 80 N/A 4/11 2/11 OREGON INLET 1600 83 82 90/ 6/ 9 1012.4 13E OREGON INLT 1548 80 N/A 5/12 5/12 HATTERAS CG 1600 84 82 360/ 7/ 7 1012.7 DIAMOND BUOY 1550 81 83 20/ 8/ 10 1012.5 7/12 7/12 CAPE LOOKOUT 1600 82 150/ 6/ 7 1012.2 BEAUFORT LAB 1600 83 81 180/ 8/ 10 1012.0 30 SE NEW RVR IN 1608 84 83 250/ 2/ 4 1012.6 30 SE NEW RVR IN 1543 84 N/A 4/11 2/11 27 SE WRIGHTSVLE 1608 84 84 240/ 4/ 8 1012.5 5 SE WRIGHTSVLE 1608 82 84 190/ 10/ 12 1012.4 225 S CAPE HAT 1550 83 84 290/ 14/ 16 1012.2 4/ 7 2/ 7 41 SE CHARLESTON 1610 82 83 260/ 10/ 14 1013.3 $$

USA.gov is the U.S. government's official web portal to all federal, state and local government web resources and services.